Temperature
7 7 8 8 9 9 10 10 10 10 10 10 10 10 10 10 10 10 11 11 11 12 12 12 12 13 13 13 14 14 14 14 14 15 15 15 16 16 16 16 16 16 16
6 7 7 8 9 9 9 10 10 10 10 10 10 9 9 9 9 9 9 10 10 10 11 11 11 12 12 13 13 13 14 14 14 14 15 15 15 15 16 16 16 16 16
7 7 7 8 8 9 9 9 9 9 9 8 8 8 8 8 8 8 8 8 8 9 9 9 10 10 11 11 12 13 13 13 14 14 14 14 14 15 15 16 16 16 16
7 7 8 8 8 8 8 8 8 8 7 7 7 7 7 7 7 7 7 7 7 7 7 8 8 9 9 10 11 11 12 12 13 14 14 14 14 14 15 15 15 16 16
7 7 7 8 8 8 8 7 7 7 6 6 6 6 6 6 6 6 6 6 6 6 6 6 7 7 8 8 9 10 11 11 13 13 13 13 14 14 14 15 15 15 15
7 7 7 8 8 7 7 6 6 6 5 5 5 5 5 5 5 5 5 5 5 5 5 5 5 6 6 7 8 9 9 10 11 12 12 13 13 13 14 14 14 15 15
7 7 7 7 7 7 7 6 5 5 5 5 4 4 5 5 4 4 4 4 4 4 4 4 4 5 5 6 6 7 8 9 10 11 11 12 12 13 13 13 14 14 15
7 7 7 7 7 6 6 6 5 5 4 4 4 4 4 4 4 4 4 4 4 4 3 4 4 4 4 4 5 6 7 8 9 9 10 11 11 12 12 13 13 14 14
6 6 6 6 6 6 5 5 4 4 4 4 4 4 4 4 4 3 3 3 3 3 3 3 3 3 3 4 4 5 5 6 7 8 9 9 10 11 12 12 13 13 14
6 6 6 6 5 5 4 4 4 4 4 4 3 3 3 3 3 3 3 3 2 2 2 2 3 3 3 3 3 4 4 5 5 6 7 8 9 10 11 11 12 12 13
5 5 5 5 5 4 4 3 3 3 3 3 3 3 3 3 3 2 2 2 2 2 2 2 2 2 2 2 2 3 3 3 4 5 6 7 8 9 9 10 11 12 12
4 4 5 4 4 3 3 3 2 2 2 2 2 2 2 2 1 2 2 2 1 1 1 1 1 1 1 1 1 2 1 2 2 3 4 5 7 7 8 9 10 11 11
4 4 4 4 3 3 2 2 1 1 1 1 1 1 1 1 0 0 0 -0 -0 -0 -0 0 0 -0 -0 -0 0 0 0 0 0 1 2 4 5 6 7 8 9 10 11
3 3 3 3 2 2 1 1 0 0 0 0 0 -0 -0 -1 -1 -1 -2 -2 -2 -2 -2 -2 -2 -2 -2 -2 -1 -1 -1 -1 -1 -0 1 3 4 5 6 7 8 9 10
3 3 2 2 1 1 0 0 -0 -0 -0 -1 -1 -1 -1 -2 -2 -3 -3 -4 -4 -4 -4 -4 -4 -4 -3 -3 -3 -2 -2 -2 -1 -1 -1 1 3 4 5 5 6 7 9
3 2 2 1 0 -0 -0 -0 -1 -1 -1 -1 -2 -2 -3 -3 -4 -4 -5 -5 -5 -5 -5 -6 -5 -5 -5 -5 -4 -4 -3 -2 -2 -2 -1 -0 1 3 3 4 5 6 7
2 2 1 0 -0 -0 -0 -1 -1 -1 -2 -2 -2 -3 -4 -4 -5 -6 -6 -6 -7 -7 -7 -7 -7 -6 -6 -6 -5 -5 -4 -3 -3 -2 -2 -1 -0 1 1 2 3 4 5
2 1 1 0 -0 -0 -0 -1 -1 -2 -2 -3 -3 -4 -5 -5 -5 -6 -7 -7 -8 -8 -8 -8 -8 -8 -7 -7 -7 -6 -5 -4 -3 -3 -3 -2 -2 -1 -0 0 1 3 4
1 1 0 -0 -0 -0 -1 -1 -2 -2 -3 -3 -4 -4 -5 -5 -6 -7 -7 -8 -8 -8 -9 -9 -9 -9 -9 -8 -8 -7 -6 -5 -4 -4 -3 -3 -2 -2 -2 -1 0 2 3
1 1 -0 -1 -1 -1 -1 -2 -2 -3 -3 -4 -4 -5 -5 -6 -7 -8 -8 -9 -9 -9 -9 -10 -10 -10 -9 -9 -9 -8 -7 -6 -5 -4 -4 -3 -3 -3 -2 -2 -1 0 2
1 0 -0 -1 -1 -2 -2 -2 -2 -3 -4 -5 -5 -6 -6 -7 -8 -8 -9 -10 -10 -10 -10 -10 -10 -10 -10 -10 -9 -9 -7 -6 -5 -5 -4 -4 -4 -3 -3 -2 -2 -1 1
0 0 -1 -1 -2 -2 -3 -3 -3 -4 -5 -6 -6 -7 -7 -8 -8 -9 -10 -10 -11 -11 -11 -11 -11 -11 -10 -10 -10 -10 -8 -7 -4 -6 -5 -5 -4 -4 -4 -3 -2 -1 -0
0 -0 -1 -2 -2 -3 -3 -3 -4 -5 -6 -6 -7 -7 -8 -8 -9 -10 -10 -11 -11 -11 -11 -11 -11 -11 -11 -11 -11 -10 -10 -9 -9 -8 -6 -5 -5 -5 -5 -4 -3 -2 -1
0 -1 -1 -2 -3 -3 -3 -4 -5 -5 -6 -7 -8 -8 -9 -9 -10 -10 -11 -11 -11 -11 -11 -11 -11 -12 -12 -11 -11 -11 -11 -11 -10 -9 -8 -7 -7 -6 -5 -4 -4 -2 -1
0 -1 -2 -2 -3 -3 -4 -4 -5 -6 -6 -7 -8 -9 -9 -10 -10 -11 -11 -11 -11 -11 -11 -12 -12 -12 -12 -12 -11 -11 -11 -11 -10 -10 -9 -8 -7 -6 -6 -5 -4 -3 -2
-0 -1 -2 -2 -3 -3 -4 -5 -5 -6 -7 -8 -8 -9 -10 -10 -10 -11 -11 -11 -11 -11 -11 -12 -12 -12 -12 -12 -12 -12 -11 -11 -11 -10 -10 -9 -8 -7 -6 -5 -4 -4 -3
Wind_Speed
13 19 23 25 25 26 26 27 27 28 28 28 29 29 29 29 29 29 29 30 30 29 29 29 29 29 29 28 28 28 27 26 25 24 21 18 14 13 12 11 9 9 5
14 17 20 24 25 25 26 26 27 27 27 28 28 29 29 29 29 29 29 29 29 29 29 29 29 29 29 28 28 28 28 27 26 26 24 18 13 12 13 13 11 10 8
14 16 19 23 24 24 25 26 26 26 27 27 28 28 29 29 29 28 29 29 29 29 29 28 29 29 28 28 28 28 27 28 27 27 24 16 13 11 13 14 13 12 12
14 15 19 22 22 23 24 25 25 25 26 27 27 28 28 28 28 28 29 28 28 28 28 28 28 28 28 28 28 27 27 27 28 27 18 16 15 13 14 15 15 14 14
13 15 19 21 22 23 23 24 24 25 25 26 27 27 28 28 28 28 28 28 28 28 28 28 28 28 28 28 28 27 27 27 28 22 17 17 16 15 16 17 17 16 15
13 15 18 22 22 22 23 23 24 24 25 25 26 26 27 27 27 27 27 28 28 28 28 28 28 28 28 28 27 27 27 27 26 19 18 17 16 17 20 19 19 18 17
13 14 17 20 21 22 23 23 23 23 24 25 25 26 26 26 26 26 27 27 27 28 28 28 28 28 28 28 27 27 27 27 23 19 17 17 17 20 22 21 21 19 18
12 13 15 18 19 20 22 22 22 22 23 24 25 25 25 25 26 26 26 27 27 28 28 28 28 28 28 27 27 26 27 26 22 19 17 17 17 21 24 24 22 21 20
12 13 15 16 17 17 19 21 20 21 22 22 23 24 24 23 24 24 25 26 27 27 27 28 28 28 28 27 26 26 26 26 20 16 18 15 17 22 25 25 24 23 21
10 13 15 16 17 16 15 17 18 18 20 20 21 23 23 21 21 22 23 25 26 27 27 27 28 28 27 26 25 25 26 22 16 18 16 15 20 24 25 26 26 25 23
9 12 14 16 16 15 14 14 15 15 17 19 19 22 20 19 19 20 22 24 25 26 26 26 27 27 26 23 23 24 22 15 19 17 15 18 23 25 26 26 26 26 25
10 11 13 15 15 15 13 12 13 13 14 16 17 19 18 17 17 19 20 22 23 25 24 25 26 24 21 19 21 21 16 19 18 16 16 22 25 26 26 27 27 27 26
8 10 12 14 14 14 12 12 11 11 12 13 15 17 17 16 15 16 16 17 19 21 20 22 21 19 20 19 19 19 19 18 16 16 18 23 25 27 27 27 27 27 26
8 9 11 13 13 13 12 11 11 11 11 12 14 16 16 14 15 16 15 17 17 17 18 19 18 21 21 21 21 20 20 18 17 18 19 23 26 27 27 27 27 26 26
8 9 10 11 12 12 11 11 11 11 12 13 12 14 16 15 15 16 16 16 16 17 17 18 19 20 21 20 20 20 21 21 21 20 18 23 26 27 26 26 26 25 25
7 8 9 9 11 12 11 11 11 11 11 12 12 14 15 15 15 16 16 16 16 17 18 18 20 19 18 18 19 20 21 22 20 20 20 21 23 24 23 23 24 24 24
5 6 8 9 10 12 12 12 11 11 12 12 12 14 15 15 16 16 15 15 15 18 19 18 19 18 16 17 17 19 19 20 21 21 21 18 18 19 19 20 21 22 23
4 5 7 8 10 12 12 12 11 12 12 11 12 13 15 16 17 16 15 15 17 18 17 16 15 14 15 15 16 16 16 17 20 20 19 17 15 14 15 17 19 20 21
3 5 6 9 11 12 12 12 11 11 11 11 12 13 16 16 17 17 15 15 18 16 15 15 13 14 16 16 16 16 16 16 17 17 15 15 13 12 13 15 18 19 19
2 4 6 8 10 12 11 11 10 11 11 11 12 14 16 16 18 17 15 17 17 15 13 14 16 15 15 15 16 17 17 17 15 12 12 11 10 11 13 15 15 15 17
1 4 6 8 10 10 9 9 9 10 9 10 12 14 15 17 17 17 15 16 16 13 15 16 15 17 15 14 16 17 16 14 13 8 10 10 10 11 13 15 14 14 13
1 4 6 7 9 10 9 9 9 10 9 10 11 13 15 16 17 16 16 16 16 14 15 16 16 14 14 13 14 15 12 12 5 11 11 9 9 10 12 14 15 14 14
0 3 5 7 8 9 11 9 10 8 8 8 10 11 15 16 16 16 17 17 17 15 14 16 16 17 15 15 12 10 9 8 14 10 11 10 11 12 13 13 14 14 14
1 2 4 6 7 9 10 9 11 10 10 12 10 11 16 16 16 16 17 17 17 16 15 16 15 15 16 14 13 12 12 15 11 10 10 13 15 14 14 13 13 13 13
1 1 3 5 7 8 9 10 10 10 10 10 11 13 14 15 15 16 17 18 17 16 17 17 17 16 14 15 14 13 14 13 14 14 16 15 14 13 13 14 12 10 11
2 1 3 5 6 7 9 9 10 12 12 13 14 13 12 11 14 16 18 18 18 17 17 17 17 18 16 17 15 13 13 13 13 13 15 16 15 14 15 13 11 9 9
Wind_Direction
350 351 357 5 11 14 16 17 17 17 17 16 15 14 13 12 11 10 9 7 6 4 3 2 1 359 358 358 356 354 352 351 348 343 336 323 311 308 308 304 291 274 263
347 353 1 9 12 15 16 17 16 16 16 15 14 13 12 10 9 9 7 6 4 2 1 360 358 357 355 355 353 351 349 348 347 344 334 317 299 299 301 300 291 286 290
0 360 6 12 14 16 17 17 16 16 16 15 14 13 11 9 8 8 6 4 3 1 360 358 356 354 353 351 350 348 347 346 344 339 326 314 309 301 301 299 291 279 272
10 8 12 14 16 17 17 17 17 16 16 14 13 12 10 9 8 6 5 3 2 0 358 357 355 353 351 349 347 346 345 343 341 333 324 322 315 311 309 302 294 282 271
20 16 16 17 19 19 18 17 17 16 15 14 12 11 10 8 6 5 3 2 0 359 357 355 353 351 349 347 345 344 343 341 337 327 326 322 315 316 315 306 298 287 276
27 21 19 20 20 20 19 18 17 16 15 13 12 10 8 7 5 4 2 0 359 357 355 354 351 349 347 345 343 342 341 340 332 327 325 321 316 321 320 312 303 291 278
28 23 22 22 22 22 20 19 17 16 14 12 10 8 7 5 3 2 0 359 357 355 354 352 349 347 345 342 340 339 338 336 329 322 320 317 315 321 319 315 308 298 284
29 24 23 23 23 22 21 19 17 15 13 11 9 6 4 2 0 360 358 356 355 353 351 349 347 345 343 340 337 336 335 333 324 316 316 310 313 321 319 316 313 306 294
31 27 23 21 20 19 20 18 15 14 11 9 7 4 1 359 357 357 355 353 352 350 348 346 344 342 340 336 334 333 332 327 315 315 312 306 316 319 317 314 310 308 303
34 29 24 22 18 13 12 14 10 10 8 6 5 2 358 355 354 353 352 350 348 346 344 342 342 339 337 333 331 331 329 320 318 315 308 306 315 315 313 311 309 307 303
37 31 24 20 16 10 6 5 3 4 4 2 1 359 356 352 350 348 346 345 345 343 341 340 339 336 335 330 330 329 324 321 318 310 305 307 311 310 308 307 306 304 300
33 28 23 18 13 8 2 358 358 359 359 360 358 355 352 348 345 343 340 341 341 340 338 338 336 335 334 330 328 326 322 319 313 307 303 306 307 307 305 304 302 299 297
34 28 22 16 11 5 358 355 355 353 353 353 355 353 348 345 342 341 339 338 338 338 338 335 334 334 330 326 322 319 317 316 310 306 302 303 304 304 303 300 298 295 292
36 27 19 13 7 1 355 350 352 351 350 350 349 351 349 343 340 340 336 335 335 335 333 331 328 326 324 321 318 316 314 311 306 303 298 299 301 301 299 297 294 292 289
36 25 15 7 4 356 351 347 349 350 348 346 346 347 347 341 338 336 331 331 330 330 329 327 324 323 321 318 316 313 311 308 304 300 298 297 297 297 296 295 293 290 288
35 22 9 3 360 353 350 349 348 347 344 343 343 344 343 340 334 330 327 326 326 327 325 322 320 319 317 315 312 311 308 305 301 300 297 295 293 292 293 293 293 292 290
37 17 8 358 354 351 349 348 345 345 343 341 340 339 340 338 333 328 323 322 324 324 322 320 319 318 315 314 311 311 308 304 301 299 296 292 291 290 289 293 296 295 292
34 14 6 355 349 350 349 345 343 342 341 339 338 337 340 337 334 328 322 320 323 321 319 319 319 318 316 314 312 310 306 302 298 297 294 289 288 292 295 298 301 299 297
35 11 1 356 350 347 344 340 338 339 339 338 338 339 340 337 335 329 322 321 323 320 317 317 318 317 314 313 311 308 304 300 296 293 291 289 289 295 301 304 305 301 297
46 10 359 354 350 345 341 338 336 339 340 340 340 340 338 336 334 330 323 323 323 319 318 318 316 314 311 311 310 307 303 295 287 285 294 295 296 303 310 311 310 306 301
44 6 358 352 350 347 345 342 338 338 336 337 337 336 335 335 333 330 326 324 322 319 317 316 316 313 313 314 313 312 305 293 281 294 302 299 301 312 313 314 312 310 306
16 1 353 350 346 347 344 335 331 327 326 327 330 331 334 333 331 329 326 323 320 318 315 316 316 312 311 315 314 315 315 310 302 321 298 294 305 315 313 312 311 309 309
344 0 347 342 339 343 341 334 331 329 327 335 336 332 332 330 328 327 324 321 318 317 313 314 313 310 310 309 305 305 304 303 320 296 302 305 315 313 310 309 308 308 308
147 355 335 335 336 341 340 339 339 336 334 334 331 325 327 327 327 326 324 321 317 315 311 311 309 305 303 302 301 294 284 289 292 302 303 308 307 307 307 306 307 304 305
160 321 324 328 333 340 341 340 336 333 330 327 327 326 328 327 326 325 324 321 318 315 311 308 306 302 298 295 295 294 290 287 280 282 294 303 305 305 306 304 300 300 304
177 274 312 324 333 339 339 338 336 332 330 328 330 329 329 326 325 326 326 321 318 315 312 309 304 300 296 292 289 286 286 286 286 287 290 297 301 304 304 300 295 297 303
Height
1625 1623 1620 1618 1615 1612 1609 1605 1602 1598 1595 1591 1588 1584 1581 1578 1575 1572 1569 1566 1563 1561 1559 1556 1554 1552 1550 1548 1546 1545 1544 1542 1541 1539 1538 1537 1537 1536 1536 1535 1535 1535 1534
1626 1624 1621 1618 1615 1612 1609 1605 1601 1598 1594 1590 1587 1583 1580 1576 1573 1570 1567 1564 1561 1558 1556 1553 1551 1549 1547 1545 1543 1542 1541 1539 1538 1537 1536 1536 1535 1534 1534 1534 1533 1533 1533
1626 1624 1622 1619 1615 1612 1609 1605 1601 1597 1593 1589 1585 1582 1578 1575 1571 1568 1564 1561 1559 1556 1553 1550 1548 1546 1543 1541 1540 1538 1537 1535 1535 1534 1534 1533 1533 1532 1532 1531 1531 1531 1531
1626 1624 1622 1618 1615 1612 1608 1604 1600 1596 1592 1588 1584 1580 1576 1573 1569 1566 1562 1559 1556 1553 1550 1547 1545 1542 1540 1538 1536 1534 1532 1531 1530 1531 1531 1530 1530 1529 1528 1528 1528 1529 1529
1626 1624 1621 1618 1615 1611 1607 1603 1599 1595 1591 1587 1583 1579 1575 1571 1568 1564 1561 1557 1554 1551 1547 1544 1541 1539 1536 1534 1531 1529 1528 1526 1526 1526 1526 1526 1526 1525 1525 1525 1525 1525 1526
1626 1624 1621 1618 1614 1610 1606 1601 1598 1594 1590 1586 1582 1578 1574 1570 1566 1563 1559 1555 1552 1548 1545 1541 1538 1535 1532 1529 1527 1525 1523 1521 1521 1521 1521 1521 1521 1521 1520 1521 1521 1521 1522
1625 1623 1620 1616 1613 1608 1604 1600 1596 1593 1589 1585 1581 1577 1573 1569 1565 1561 1557 1553 1550 1546 1542 1538 1535 1531 1528 1526 1523 1520 1517 1516 1516 1515 1515 1515 1515 1515 1515 1516 1516 1517 1517
1624 1622 1619 1615 1611 1607 1603 1599 1595 1592 1587 1583 1580 1576 1572 1568 1564 1560 1556 1552 1548 1544 1540 1536 1532 1528 1524 1521 1518 1515 1513 1511 1510 1510 1509 1509 1509 1509 1509 1510 1511 1511 1512
1624 1621 1618 1615 1611 1606 1602 1598 1594 1590 1586 1582 1578 1574 1570 1566 1562 1558 1554 1550 1546 1541 1537 1533 1528 1524 1521 1517 1514 1511 1508 1506 1505 1503 1503 1503 1502 1502 1503 1504 1505 1505 1506
1623 1620 1617 1613 1609 1605 1601 1597 1593 1589 1585 1581 1577 1573 1569 1564 1560 1556 1552 1547 1543 1538 1534 1530 1525 1521 1517 1513 1510 1506 1503 1501 1500 1497 1497 1496 1495 1495 1496 1497 1498 1499 1500
1622 1619 1615 1612 1607 1603 1599 1595 1591 1588 1584 1580 1576 1571 1567 1563 1558 1554 1549 1544 1540 1535 1531 1526 1521 1517 1512 1509 1505 1501 1498 1496 1493 1491 1490 1489 1488 1488 1489 1489 1490 1491 1493
1621 1617 1614 1610 1606 1602 1598 1594 1590 1586 1582 1578 1574 1569 1564 1560 1555 1551 1546 1541 1537 1532 1527 1522 1518 1513 1508 1504 1501 1497 1494 1491 1488 1486 1484 1482 1481 1481 1481 1482 1483 1484 1486
1619 1616 1612 1609 1605 1600 1596 1592 1588 1584 1580 1575 1571 1566 1562 1557 1552 1547 1542 1537 1532 1528 1523 1518 1513 1509 1505 1500 1496 1493 1489 1486 1483 1480 1477 1475 1474 1473 1473 1474 1475 1477 1478
1618 1615 1611 1607 1603 1599 1595 1591 1586 1582 1578 1574 1569 1564 1559 1555 1550 1545 1539 1534 1529 1524 1519 1514 1509 1505 1501 1497 1492 1488 1485 1481 1477 1474 1470 1468 1467 1466 1465 1466 1467 1469 1470
1617 1614 1610 1606 1601 1597 1593 1589 1585 1581 1577 1572 1567 1563 1557 1552 1547 1542 1537 1532 1527 1522 1516 1511 1506 1501 1496 1492 1488 1484 1479 1476 1472 1468 1464 1462 1460 1459 1458 1458 1459 1460 1462
1615 1612 1609 1604 1600 1595 1592 1588 1584 1580 1575 1571 1566 1560 1555 1550 1544 1539 1534 1529 1524 1519 1513 1508 1503 1497 1492 1488 1483 1478 1474 1470 1466 1463 1459 1456 1454 1452 1451 1451 1451 1452 1454
1613 1611 1607 1603 1599 1595 1591 1587 1583 1579 1574 1569 1563 1558 1552 1547 1541 1536 1531 1526 1521 1515 1510 1504 1499 1494 1488 1483 1478 1473 1468 1464 1460 1456 1453 1450 1448 1446 1445 1444 1443 1444 1445
1611 1608 1605 1601 1597 1594 1590 1586 1582 1577 1572 1566 1561 1555 1549 1544 1538 1533 1528 1523 1518 1512 1506 1501 1496 1490 1484 1479 1473 1468 1463 1458 1454 1451 1448 1445 1443 1442 1440 1438 1436 1436 1437
1609 1606 1603 1600 1596 1592 1588 1584 1580 1575 1569 1564 1559 1553 1547 1541 1536 1530 1525 1520 1514 1509 1504 1499 1493 1487 1481 1475 1469 1463 1458 1453 1448 1445 1443 1441 1439 1436 1434 1432 1430 1429 1430
1607 1604 1601 1598 1594 1590 1586 1582 1578 1573 1567 1562 1556 1551 1544 1538 1533 1527 1522 1517 1511 1506 1501 1495 1490 1484 1478 1472 1465 1458 1452 1447 1443 1441 1438 1436 1434 1432 1429 1427 1425 1424 1424
1604 1602 1599 1595 1591 1587 1583 1579 1574 1569 1564 1558 1553 1547 1541 1535 1529 1524 1519 1513 1508 1503 1498 1492 1486 1481 1475 1470 1462 1454 1448 1444 1440 1437 1434 1432 1430 1427 1424 1422 1420 1419 1418
1602 1599 1596 1593 1589 1585 1580 1576 1571 1565 1560 1555 1550 1544 1539 1533 1527 1521 1516 1510 1505 1500 1494 1489 1484 1478 1472 1468 1462 1454 1446 1441 1437 1433 1430 1428 1425 1422 1420 1418 1416 1414 1413
1599 1597 1593 1590 1586 1582 1578 1573 1568 1563 1558 1553 1547 1541 1535 1530 1524 1518 1513 1507 1502 1497 1491 1486 1481 1475 1469 1465 1461 1457 1450 1441 1435 1429 1427 1425 1421 1418 1415 1413 1411 1409 1408
1596 1593 1590 1587 1583 1579 1575 1570 1565 1560 1555 1550 1544 1538 1532 1527 1521 1516 1510 1505 1499 1494 1488 1482 1477 1472 1466 1461 1457 1453 1450 1444 1438 1428 1424 1421 1418 1415 1411 1409 1406 1404 1403
1592 1590 1587 1584 1581 1577 1572 1568 1562 1557 1552 1547 1541 1535 1530 1524 1518 1513 1507 1502 1496 1490 1484 1478 1472 1467 1462 1457 1452 1448 1444 1440 1436 1430 1422 1417 1414 1411 1408 1405 1402 1400 1398
1589 1587 1584 1581 1578 1574 1570 1565 1560 1555 1549 1544 1538 1532 1527 1521 1516 1510 1504 1499 1493 1487 1480 1474 1467 1462 1457 1452 1447 1443 1439 1435 1431 1427 1421 1416 1411 1407 1404 1401 1398 1396 1394